Dewpoint
-4 -3 -1 -2 -2 -2 -1 -0 0 -2 -6 -7 -6 -6 -1 -1 -2 -2 -2 -2 -2 -3 -3 -4 -4 -4 -4 -6 -9 -14 -16 -17 -14 -12 -10 -5 -4 -4 -3 -4 -9 -13 -15 -15
-2 -1 -3 -3 -3 -2 -2 -1 -0 -2 -7 -9 -6 -6 -7 -2 -2 -2 -2 -2 -2 -3 -3 -3 -3 -3 -3 -4 -8 -9 -11 -17 -16 -7 -8 -11 -6 -4 -4 -4 -3 -3 -7 -9
1 -2 -6 -4 -3 -3 -2 -1 -1 -1 -5 -11 -8 -6 -6 -3 -2 -3 -2 -2 -2 -2 -3 -3 -3 -3 -3 -3 -5 -6 -8 -14 -16 -15 -7 -7 -5 -6 -5 -5 -4 -4 -4 -7
-2 -1 -2 -4 -3 -4 -2 -5 -4 -3 -4 -3 -8 -5 -8 -4 -2 -3 -3 -2 -2 -2 -3 -3 -3 -3 -3 -3 -6 -6 -10 -11 -13 -15 -10 -12 -6 -6 -5 -5 -5 -6 -3 -3
-2 -2 -2 -2 -3 -5 -4 -7 -6 -5 -4 -4 -6 -5 -8 -7 -2 -2 -3 -2 -2 -2 -3 -3 -3 -4 -4 -3 -4 -5 -6 -6 -11 -13 -14 -11 -11 -7 -6 -5 -4 -4 -4 -3
-4 -5 -5 -3 -4 -5 -7 -7 -7 -7 -5 -2 -4 -4 -6 -6 -4 -4 -4 -3 -2 -2 -3 -3 -3 -4 -4 -3 -3 -4 -5 -5 -7 -9 -13 -14 -12 -9 -5 -5 -5 -5 -4 -4
-2 -4 -5 -7 -4 -5 -6 -4 -0 0 -1 -1 -6 -4 -5 -5 -6 -6 -5 -3 -2 -2 -2 -3 -3 -4 -4 -3 -3 -4 -5 -5 -5 -8 -9 -8 -6 -6 -5 -5 -5 -4 -4 -4
0 1 -4 -7 -5 -4 -4 -4 1 2 1 -1 -6 -4 -6 -10 -8 -6 -6 -4 -2 -1 -2 -3 -3 -4 -4 -3 -4 -5 -5 -5 -5 -5 -5 -5 -6 -6 -6 -5 -5 -5 -5 -5
-1 -2 -5 -6 -8 -6 -3 -2 -4 0 -1 1 -1 -4 -5 -7 -8 -5 -6 -3 -2 -2 -2 -2 -3 -3 -3 -3 -3 -4 -5 -6 -5 -5 -6 -6 -6 -7 -6 -5 -5 -5 -5 -5
-2 2 -3 -6 -9 -8 -5 -6 -1 -2 2 3 -1 -2 -4 -4 -5 -6 -6 -4 -3 -2 -2 -3 -3 -2 -3 -3 -3 -4 -5 -5 -5 -6 -6 -8 -7 -7 -6 -5 -5 -5 -5 -5
-2 0 -3 -8 -6 -4 -5 -5 -4 -4 -1 0 0 -3 -7 -5 -5 -4 -5 -4 -3 -2 -2 -3 -2 -2 -3 -4 -4 -4 -5 -5 -6 -6 -9 -10 -8 -7 -6 -6 -5 -5 -5 -6
-1 1 4 -2 -6 -9 -8 -5 -3 3 0 1 2 0 -7 -7 -6 -5 -5 -4 -3 -2 -2 -3 -1 -2 -3 -4 -4 -4 -4 -5 -6 -8 -10 -8 -6 -6 -6 -6 -6 -6 -6 -6
-0 5 8 3 1 -6 -6 -6 -6 -2 1 0 5 2 -6 -6 -6 -5 -4 -3 -2 -2 -3 -2 -1 -1 -3 -3 -4 -4 -4 -6 -9 -8 -8 -7 -6 -6 -6 -6 -6 -6 -6 -7
0 2 6 4 -0 -1 2 -2 -5 -5 0 -0 -0 -1 -2 -4 -5 -6 -5 -3 -3 -3 -3 -1 -0 -1 -3 -4 -5 -4 -7 -9 -9 -9 -8 -7 -7 -6 -7 -7 -6 -7 -7 -7
1 5 2 -0 -3 -3 -4 -0 -0 -2 -5 -2 -3 -3 -4 -4 -4 -4 -4 -4 -3 -3 -2 -1 -0 -1 -4 -4 -6 -4 -5 -7 -9 -9 -8 -8 -7 -7 -8 -7 -7 -8 -8 -8
3 6 5 5 2 2 1 -1 -2 -1 -1 -3 -3 -0 -3 -6 -5 -7 -5 -4 -4 -3 -2 -1 -1 -3 -4 -4 -5 -6 -7 -8 -10 -9 -9 -9 -8 -9 -9 -9 -9 -9 -9 -9
5 5 6 4 0 1 7 6 3 1 -0 -0 -1 -4 -6 -4 -5 -8 -5 -5 -4 -3 -2 -1 -3 -4 -5 -6 -6 -7 -8 -10 -10 -10 -10 -10 -9 -10 -10 -10 -10 -10 -10 -10
5 5 6 5 1 6 -1 -5 -4 -2 -1 -2 -1 -2 -2 -4 -6 -9 -8 -6 -3 -2 -2 -3 -4 -6 -6 -7 -7 -8 -10 -10 -10 -10 -10 -10 -10 -11 -11 -10 -11 -10 -11 -11
2 3 5 4 5 2 1 -3 -3 -2 -2 -5 -2 -3 -6 -7 -4 -3 -5 -5 -3 -2 -3 -5 -6 -6 -7 -7 -9 -10 -10 -10 -11 -10 -10 -11 -11 -11 -12 -11 -11 -11 -11 -12
0 3 4 1 2 3 -2 -6 -5 -5 -0 -6 -5 -5 -6 -5 -2 -3 -4 -3 -3 -3 -5 -6 -7 -7 -8 -9 -10 -11 -11 -11 -11 -11 -11 -11 -11 -12 -12 -11 -12 -12 -12 -13
3 4 4 3 2 -2 -7 -10 -7 -1 -2 -5 -6 -6 -5 -2 -2 -3 -4 -4 -4 -6 -7 -8 -8 -9 -10 -11 -11 -11 -11 -11 -11 -11 -11 -12 -12 -13 -13 -12 -12 -12 -13 -12
3 3 2 3 4 3 -7 -7 -2 -2 -3 -3 -5 -6 -3 -2 -3 -3 -4 -5 -7 -7 -8 -8 -9 -10 -11 -12 -12 -12 -12 -12 -12 -11 -12 -13 -13 -13 -13 -12 -12 -12 -12 -12
0 3 3 -1 -2 -5 -3 -3 -5 -2 -2 -2 -2 -2 -1 -3 -4 -5 -6 -7 -8 -8 -9 -10 -11 -11 -12 -13 -13 -13 -13 -13 -12 -13 -15 -12 -12 -12 -12 -12 -11 -12 -11 -12
-3 -2 3 0 -2 -3 -3 -2 -2 -2 -2 -2 -2 -1 -3 -4 -6 -6 -7 -7 -8 -9 -10 -11 -12 -12 -12 -13 -14 -14 -15 -14 -14 -23 -23 -20 -12 -14 -12 -11 -11 -12 -12 -13
0 1 1 0 -2 -3 -3 -2 -2 -2 -2 -2 -3 -4 -4 -5 -6 -6 -7 -8 -9 -10 -11 -12 -13 -12 -13 -14 -14 -15 -15 -14 -13 -22 -20 -15 -12 -12 -12 -12 -12 -12 -13 -14
-5 -4 2 1 -2 1 -2 0 -0 -0 -1 -2 -3 -4 -5 -6 -6 -7 -8 -8 -9 -11 -12 -12 -12 -13 -14 -15 -14 -15 -15 -20 -19 -13 -12 -12 -12 -12 -12 -12 -12 -12 -13 -14
Wind_Speed
13 10 14 16 16 19 19 15 18 12 9 10 16 18 19 20 22 23 24 24 22 20 17 14 13 10 9 7 6 4 3 4 5 5 6 6 8 8 9 11 15 15 17 18
11 15 16 15 13 13 16 17 20 17 6 4 16 14 14 18 23 25 25 25 23 21 19 16 13 11 9 8 6 5 4 4 5 6 7 9 9 8 9 11 12 15 17 18
18 13 7 12 12 15 17 18 16 16 8 12 16 15 17 18 22 24 26 25 24 24 21 18 15 12 10 7 6 5 4 4 5 7 7 9 8 9 10 13 12 16 17 18
20 21 17 13 16 15 16 17 16 14 12 14 18 10 16 22 22 21 27 28 27 25 23 20 17 14 12 9 6 5 4 3 5 7 8 10 10 11 13 13 14 17 16 16
18 14 16 19 19 16 15 5 9 15 15 16 16 8 15 22 19 24 28 30 28 26 25 22 20 16 13 10 8 6 4 3 5 7 9 9 10 11 12 14 16 15 15 14
22 8 11 16 16 11 4 8 8 10 11 15 18 16 13 14 24 20 25 29 28 26 25 23 20 17 14 10 8 6 5 3 3 5 8 10 11 13 12 13 14 14 15 14
24 25 16 10 12 10 13 12 7 10 11 14 10 15 17 7 9 14 19 29 30 29 27 25 23 20 16 12 10 7 6 2 2 5 8 9 11 11 12 13 14 16 15 16
21 20 26 19 23 17 19 19 11 13 13 15 13 9 10 7 12 7 7 24 28 29 28 27 25 22 18 15 12 9 6 3 1 4 6 8 10 10 11 12 13 14 16 16
10 22 7 12 20 23 18 20 22 20 20 11 13 16 10 10 10 10 12 21 26 28 29 28 26 23 19 15 12 9 6 2 1 3 7 9 10 12 12 13 12 13 14 17
7 8 2 13 6 19 20 9 12 10 12 21 19 19 17 13 16 15 14 20 25 27 28 27 26 23 19 15 12 9 6 3 0 4 7 9 11 11 12 11 12 14 14 16
17 9 3 1 12 17 13 16 15 13 15 12 15 16 8 6 14 15 15 21 25 28 28 28 26 23 19 15 12 9 6 3 2 4 8 10 10 10 10 11 12 13 15 16
15 5 13 18 13 7 9 15 18 10 15 9 12 19 6 4 3 12 18 21 22 25 27 27 25 23 20 16 13 10 6 3 3 6 9 8 8 9 9 10 12 14 14 16
6 2 4 12 14 9 9 17 15 13 9 17 15 19 5 4 10 16 16 20 23 27 28 28 26 23 21 18 14 10 6 3 4 5 6 6 7 8 9 11 13 14 15 16
4 12 14 14 18 6 7 14 17 20 14 23 21 28 23 12 10 11 14 19 24 28 29 28 26 24 27 21 16 9 6 5 3 3 4 5 7 8 10 11 13 14 15 16
5 7 19 26 30 29 27 18 16 21 23 21 23 22 25 20 14 18 20 20 25 28 29 28 26 19 20 15 12 9 5 2 3 3 3 5 6 8 9 11 12 14 15 15
4 4 5 13 24 27 26 25 27 21 23 25 27 28 27 28 22 27 26 25 25 27 29 27 26 20 19 16 13 10 6 3 1 2 3 4 6 8 9 11 12 14 15 15
8 5 4 7 14 15 13 25 29 30 29 28 22 28 22 23 22 21 22 23 24 27 28 27 25 22 19 16 13 9 5 2 1 1 2 4 7 8 10 11 13 14 14 15
7 11 6 4 11 13 13 15 18 22 26 27 28 28 27 22 27 15 16 19 22 26 28 26 24 21 18 14 11 8 5 2 2 0 2 5 6 8 10 11 12 14 15 16
12 7 5 5 8 12 11 13 13 14 19 18 23 27 22 6 8 1 8 14 19 24 26 25 23 20 17 13 10 8 5 3 2 1 3 5 6 8 9 11 12 13 15 16
18 14 12 12 13 8 10 7 6 2 16 12 17 19 21 17 9 9 14 16 22 26 26 25 23 19 16 12 10 8 6 4 2 1 3 4 6 8 9 10 12 13 14 15
7 5 15 15 15 16 22 25 9 10 14 9 14 17 15 13 5 18 21 24 25 27 26 25 21 17 14 12 10 9 6 4 1 2 3 4 6 8 8 10 11 13 13 15
13 8 9 10 11 19 19 15 16 6 5 3 4 7 17 16 21 26 27 28 27 26 25 21 19 16 13 11 10 8 6 3 2 2 3 4 6 7 8 10 11 12 14 15
14 10 10 12 9 14 13 18 14 4 4 4 9 15 21 26 28 28 29 28 27 24 22 18 17 16 13 11 9 9 6 3 3 1 2 4 5 7 8 9 11 12 12 14
8 15 12 14 18 20 15 9 3 4 5 7 11 19 24 27 28 30 29 27 25 22 20 18 16 14 13 10 10 8 5 4 2 1 3 4 5 7 8 9 10 11 13 13
7 4 15 12 16 17 17 11 12 7 8 10 14 18 22 28 28 29 28 25 22 20 19 17 15 14 12 11 9 6 5 5 2 2 3 5 5 7 8 9 11 11 13 17
17 12 9 10 9 12 15 6 12 11 9 11 18 21 23 26 27 26 24 22 21 20 18 16 15 14 13 10 8 6 5 4 3 1 2 3 4 6 7 9 9 14 16 20
Wind_Direction
203 241 230 237 232 258 281 285 288 247 152 219 226 236 171 189 202 200 197 195 192 190 179 172 165 151 138 140 123 121 89 56 45 17 14 5 359 350 353 346 339 336 335 332
241 245 258 256 261 268 255 256 259 261 145 239 259 236 216 182 208 207 204 200 196 189 185 181 172 162 152 143 132 109 84 52 39 22 9 2 353 351 345 342 345 336 338 337
245 252 359 275 242 244 244 247 251 258 209 219 267 247 230 189 207 215 210 205 201 196 191 187 180 170 159 148 135 117 85 42 19 24 4 3 358 350 338 341 339 335 334 336
255 248 244 252 251 238 252 234 249 261 242 254 196 266 246 192 204 209 206 206 201 198 197 193 187 180 171 160 150 124 103 58 11 9 5 1 358 346 336 334 329 334 333 333
234 232 241 227 243 239 256 310 248 243 249 255 225 249 257 190 200 210 206 205 203 199 196 194 192 186 175 163 157 138 113 72 12 358 355 357 344 337 335 333 330 333 329 331
250 230 266 247 238 242 253 246 239 246 248 248 243 249 252 211 201 212 204 206 202 197 197 196 193 187 180 167 158 144 135 98 14 1 343 341 341 340 336 331 332 326 330 325
232 237 229 246 232 215 209 225 229 225 223 244 243 230 237 145 172 219 200 199 197 197 197 194 191 190 186 174 168 160 152 138 27 356 344 343 342 344 338 332 329 328 326 327
224 236 220 195 226 209 218 220 227 237 249 262 226 236 247 45 130 145 219 189 192 196 194 195 194 193 188 179 172 165 161 151 47 359 345 347 342 340 338 327 329 329 326 325
251 246 231 202 215 234 225 222 240 265 280 269 264 260 159 161 164 168 176 179 189 193 193 195 194 193 190 181 175 169 162 154 64 353 338 341 340 334 332 330 330 325 325 321
262 269 226 159 224 233 246 229 237 231 251 247 253 257 273 188 183 176 188 190 189 192 192 193 192 190 189 182 175 169 161 169 36 341 334 333 334 332 330 333 329 327 323 326
225 237 155 155 210 216 216 238 238 242 234 256 267 264 304 348 181 185 185 190 190 190 191 192 190 190 188 182 180 174 170 170 259 321 326 333 330 330 333 329 328 325 328 325
208 249 232 224 239 254 284 237 228 238 247 251 260 261 83 30 154 171 184 188 191 191 191 191 189 189 188 183 180 178 180 178 295 321 325 333 329 329 337 331 332 329 328 327
350 187 248 233 223 191 240 238 243 234 234 246 246 257 287 209 186 181 188 189 191 191 189 189 188 189 187 182 177 177 179 220 294 321 327 331 324 331 337 335 332 333 329 329
278 255 258 269 273 221 198 246 245 235 231 244 233 253 250 205 208 202 202 191 196 193 190 189 187 192 191 191 186 182 212 256 298 322 332 319 328 334 335 335 331 330 329 328
212 238 249 254 261 269 272 239 251 241 241 244 260 252 260 263 216 230 236 214 197 193 192 190 189 185 188 191 187 179 183 222 292 323 325 320 333 340 336 332 333 329 329 328
175 206 220 262 276 280 280 270 260 252 262 246 249 254 248 262 283 262 222 214 203 195 194 189 190 186 186 183 178 176 181 216 290 317 321 335 337 344 335 334 335 330 329 330
166 166 195 250 268 281 259 247 260 252 251 250 242 244 251 261 266 239 206 206 205 196 191 189 187 184 182 179 175 170 175 205 131 290 334 339 343 343 338 337 334 330 331 331
173 202 229 228 259 248 258 257 245 250 254 252 253 250 258 269 267 217 225 214 197 189 183 182 178 176 175 169 160 161 157 163 137 338 341 346 341 341 342 337 334 334 333 334
202 195 228 237 259 290 296 262 261 256 267 261 247 251 248 198 102 189 211 199 191 175 172 171 171 170 167 161 155 157 148 154 139 26 347 345 343 346 342 336 335 334 335 333
197 217 233 231 240 243 250 358 35 190 263 261 246 241 232 160 209 214 184 165 158 159 161 162 163 162 160 155 154 150 154 157 137 15 354 348 349 344 341 336 335 334 335 331
202 200 230 235 250 256 255 263 192 217 266 308 223 226 203 178 233 147 150 149 153 154 156 157 157 155 155 150 148 150 153 150 135 33 6 0 353 348 340 337 339 337 336 334
198 214 220 234 242 245 250 268 201 279 306 277 203 182 151 144 138 141 144 146 149 151 154 153 152 151 147 146 146 148 152 150 107 63 26 9 358 352 343 346 342 344 340 336
229 206 229 217 237 244 260 280 217 281 285 226 160 147 148 146 147 148 148 151 152 153 153 153 154 145 140 140 147 153 147 136 120 106 25 11 1 356 350 354 346 348 343 338
283 286 216 241 258 271 257 256 261 235 217 203 166 156 157 153 150 149 151 152 153 155 154 155 150 144 142 142 139 145 147 138 179 309 334 352 351 2 356 2 347 344 336 340
210 266 238 235 249 270 270 250 236 217 159 155 153 154 157 153 153 153 152 153 155 155 155 152 153 150 148 148 140 141 144 145 152 330 11 347 358 358 0 354 338 339 328 327
248 239 216 252 265 248 263 287 223 189 156 159 159 157 160 154 153 153 150 154 157 155 154 152 154 154 155 151 146 153 157 176 160 66 1 324 6 356 352 348 345 334 337 336
Height
1495 1496 1488 1480 1477 1475 1471 1471 1465 1455 1460 1471 1471 1469 1481 1493 1497 1498 1502 1507 1512 1518 1521 1524 1525 1526 1526 1527 1527 1528 1528 1527 1528 1528 1527 1527 1526 1525 1523 1520 1516 1513 1510 1508
1491 1490 1480 1475 1473 1476 1474 1477 1471 1460 1460 1476 1467 1465 1463 1482 1489 1492 1496 1502 1508 1515 1520 1523 1524 1525 1526 1526 1525 1526 1526 1526 1526 1526 1525 1524 1524 1523 1521 1519 1516 1512 1508 1505
1483 1474 1479 1478 1477 1482 1475 1472 1468 1464 1458 1471 1469 1464 1461 1470 1483 1487 1490 1496 1503 1509 1516 1521 1522 1523 1524 1525 1525 1525 1524 1524 1524 1524 1525 1524 1524 1523 1521 1518 1516 1511 1507 1504
1474 1471 1474 1479 1478 1475 1476 1465 1467 1465 1468 1471 1456 1463 1440 1456 1473 1479 1484 1489 1495 1503 1511 1517 1520 1521 1522 1522 1522 1523 1523 1523 1523 1522 1522 1522 1522 1521 1518 1516 1513 1509 1507 1504
1468 1470 1470 1471 1470 1470 1472 1470 1470 1467 1465 1462 1454 1466 1441 1439 1462 1467 1473 1482 1489 1497 1505 1510 1515 1517 1519 1518 1519 1520 1521 1521 1521 1521 1521 1520 1519 1518 1516 1514 1511 1509 1506 1504
1467 1463 1467 1463 1465 1466 1470 1474 1472 1469 1467 1468 1455 1454 1437 1434 1443 1456 1466 1476 1484 1493 1500 1506 1511 1515 1517 1516 1517 1518 1521 1520 1519 1519 1518 1517 1516 1514 1513 1512 1510 1507 1504 1501
1462 1461 1464 1469 1468 1466 1470 1474 1476 1476 1469 1462 1436 1442 1434 1434 1439 1445 1455 1468 1478 1487 1495 1502 1507 1511 1513 1514 1516 1517 1519 1519 1517 1516 1516 1515 1514 1512 1511 1511 1508 1505 1503 1499
1456 1460 1453 1455 1459 1460 1462 1463 1461 1464 1455 1441 1422 1444 1431 1433 1442 1450 1453 1462 1475 1481 1489 1496 1502 1506 1509 1511 1512 1514 1515 1515 1515 1514 1514 1513 1511 1509 1508 1506 1504 1504 1501 1498
1449 1438 1435 1444 1454 1455 1453 1460 1450 1457 1451 1461 1440 1421 1433 1438 1443 1452 1456 1461 1470 1478 1484 1491 1497 1503 1506 1507 1509 1511 1512 1513 1512 1512 1511 1510 1508 1507 1504 1503 1500 1499 1497 1495
1449 1453 1442 1444 1453 1450 1448 1449 1463 1458 1472 1463 1437 1433 1426 1435 1439 1446 1453 1460 1467 1474 1480 1487 1493 1499 1503 1505 1505 1506 1508 1509 1509 1509 1507 1506 1504 1502 1502 1500 1498 1496 1494 1491
1449 1456 1457 1453 1451 1447 1452 1456 1452 1448 1446 1452 1446 1427 1412 1420 1431 1438 1446 1455 1462 1469 1476 1483 1490 1496 1499 1501 1502 1503 1504 1505 1505 1505 1503 1501 1500 1499 1498 1498 1495 1493 1491 1488
1444 1451 1453 1450 1444 1444 1446 1441 1448 1459 1453 1443 1445 1429 1427 1432 1433 1439 1446 1452 1459 1467 1475 1481 1487 1492 1495 1498 1500 1500 1500 1501 1502 1500 1500 1499 1499 1498 1493 1494 1492 1489 1488 1485
1454 1467 1468 1448 1444 1447 1449 1441 1442 1444 1453 1459 1457 1430 1430 1429 1437 1441 1445 1451 1457 1463 1470 1476 1483 1489 1492 1494 1496 1497 1498 1498 1499 1498 1497 1495 1496 1494 1492 1490 1489 1487 1485 1482
1467 1467 1465 1445 1427 1428 1450 1441 1438 1441 1448 1432 1438 1432 1431 1434 1439 1441 1444 1448 1454 1459 1465 1473 1479 1483 1487 1490 1491 1493 1493 1494 1495 1494 1493 1494 1493 1490 1488 1486 1486 1485 1483 1480
1464 1465 1458 1443 1433 1430 1424 1431 1433 1434 1431 1438 1426 1431 1422 1430 1433 1439 1441 1442 1448 1452 1460 1468 1475 1480 1485 1489 1489 1492 1492 1492 1492 1491 1492 1492 1489 1487 1486 1485 1483 1482 1481 1478
1463 1460 1464 1459 1447 1439 1434 1428 1418 1423 1426 1423 1428 1431 1421 1423 1425 1424 1432 1438 1440 1447 1455 1463 1472 1477 1483 1486 1487 1488 1490 1490 1489 1491 1490 1488 1487 1484 1484 1483 1481 1481 1479 1476
1457 1457 1458 1449 1438 1435 1442 1434 1426 1419 1420 1419 1418 1409 1417 1419 1420 1424 1427 1430 1434 1441 1451 1461 1468 1474 1480 1483 1484 1485 1486 1486 1486 1489 1488 1486 1484 1483 1482 1480 1480 1478 1476 1473
1447 1447 1451 1442 1440 1438 1415 1406 1406 1408 1408 1409 1409 1407 1409 1410 1413 1418 1424 1427 1430 1438 1448 1458 1466 1473 1478 1479 1481 1481 1484 1484 1484 1486 1486 1483 1482 1480 1479 1478 1477 1476 1473 1471
1444 1443 1443 1441 1435 1423 1416 1404 1404 1406 1403 1397 1401 1401 1402 1411 1418 1423 1425 1426 1432 1439 1448 1457 1464 1470 1474 1476 1477 1480 1480 1483 1483 1482 1482 1481 1479 1477 1476 1476 1475 1473 1470 1468
1426 1436 1437 1430 1428 1425 1403 1396 1400 1405 1404 1391 1390 1392 1398 1411 1417 1415 1424 1426 1433 1441 1450 1456 1462 1467 1471 1471 1474 1477 1479 1481 1479 1479 1479 1478 1476 1475 1475 1474 1472 1470 1468 1466
1428 1435 1432 1423 1420 1411 1402 1398 1401 1409 1394 1386 1384 1388 1391 1403 1412 1418 1423 1429 1437 1444 1450 1455 1461 1464 1468 1469 1471 1474 1477 1477 1476 1476 1476 1476 1474 1473 1473 1472 1470 1467 1465 1462
1418 1422 1419 1422 1420 1414 1396 1393 1396 1395 1392 1391 1390 1391 1398 1406 1415 1420 1426 1433 1440 1447 1453 1456 1460 1463 1464 1467 1469 1472 1474 1473 1473 1474 1474 1473 1471 1471 1471 1469 1467 1464 1462 1460
1397 1403 1402 1402 1396 1393 1390 1386 1388 1394 1395 1397 1396 1397 1404 1409 1414 1421 1428 1436 1442 1448 1453 1457 1460 1461 1462 1465 1469 1470 1470 1470 1471 1471 1470 1470 1469 1468 1467 1466 1464 1461 1460 1458
1396 1396 1393 1398 1391 1388 1387 1392 1395 1396 1397 1400 1399 1400 1405 1411 1417 1421 1430 1437 1442 1448 1452 1457 1459 1459 1460 1463 1465 1467 1466 1468 1468 1467 1466 1466 1466 1464 1463 1463 1462 1460 1458 1455
1394 1398 1389 1386 1387 1388 1388 1390 1394 1398 1397 1398 1402 1405 1409 1414 1419 1424 1429 1436 1442 1447 1451 1454 1457 1458 1461 1462 1463 1462 1464 1465 1466 1464 1464 1464 1465 1463 1462 1461 1460 1458 1456 1453
1382 1377 1385 1382 1384 1387 1386 1391 1395 1395 1394 1400 1404 1408 1414 1415 1420 1426 1430 1436 1441 1445 1448 1451 1455 1457 1459 1460 1460 1461 1462 1462 1463 1463 1464 1463 1462 1461 1460 1460 1459 1456 1453 1450